Location: Jackson Park
(37.2862°N, 79.9123°W)
Time: 20:09:40
(UTC+00:00)

Vanguard 3 - Pass Details

Date: 11 May 2026
Orbit: 507 x 3205 km, 33.4° (Epoch: 31 May)

Event Time Altitude Azimuth Distance (km) Brightness Sun altitude
Rises 01:37:46 0° 282° (WNW) 6,458 13.0 -14.7°
Reaches altitude 10° 01:42:54 10° 277° (W) 5,052 12.1 -15.5°
Maximum altitude 01:54:57 41° 214° (SW) 2,218 9.3 -17.4°
Enters shadow 01:59:55 22° 158° (SSE) 2,510 9.1 -18.1°
Drops below altitude 10° 02:02:08 10° 146° (SE) 3,029 - -18.4°
Sets 02:04:28 0° 138° (SE) 3,710 - -18.8°
